Overview Statistics Trail Chart Weather Telemetry Raw packets
 

This is the latest recevied weather packets stored in our database for station/object N1ORT. If no packets are shown the sender has not sent any weather packets the latest 10 day(s).

<< 26 27 28 29 30 31 32 >>
Time Temp. Humidity Pressure Rain* Wind** Luminosity Snow
1788440704 17.22° C 99% 1013.3 hPa 0 mm - 64 W/m² -
1788440403 17.22° C 99% 1013.4 hPa 0 mm - 101 W/m² -
1788440102 16.67° C 99% 1013.4 hPa 0 mm - 86 W/m² -
1788439797 17.22° C 99% 1013.4 hPa 0 mm - 67 W/m² -
1788439492 17.22° C 99% 1013.5 hPa 0 mm - 65 W/m² -
1788439191 16.67° C 99% 1013.8 hPa 0 mm - 74 W/m² -
1788438886 16.67° C 99% 1013.6 hPa 0 mm - 79 W/m² -
1788438585 16.67° C 99% 1013.7 hPa 0 mm - 68 W/m² -
1788438284 16.67° C 99% 1013.8 hPa 0 mm - 64 W/m² -
1788437984 16.67° C 99% 1013.9 hPa 0 mm - 51 W/m² -
1788437678 16.67° C 99% 1014.1 hPa 0 mm - 48 W/m² -
1788437375 16.67° C 99% 1014 hPa 0 mm - 49 W/m² -
1788437073 16.67° C 99% 1014.1 hPa 0.51 mm - 36 W/m² -
1788436772 16.67° C 99% 1014.1 hPa 0.51 mm - 26 W/m² -
1788436490 16.67° C 99% 1014.1 hPa 0 mm - 22 W/m² -
1788436167 16.67° C 99% 1014 hPa 0 mm - 23 W/m² -
1788435862 16.67° C 99% 1014.1 hPa 0 mm - 20 W/m² -
1788435558 16.67° C 99% 1014.1 hPa 0 mm - 22 W/m² -
1788435254 16.67° C 99% 1014.3 hPa 0 mm - 18 W/m² -
1788434949 16.67° C 99% 1014.2 hPa 0 mm - 15 W/m² -
1788434645 16.67° C 99% 1014.3 hPa 0 mm - 14 W/m² -
1788434344 16.67° C 99% 1014.4 hPa 0.51 mm - 13 W/m² -
1788434043 16.67° C 99% 1014.3 hPa 1.27 mm - 13 W/m² -
1788433740 16.67° C 99% 1014.2 hPa 1.27 mm - 14 W/m² -
1788433435 16.11° C 99% 1014.4 hPa 2.29 mm - 12 W/m² -

* Rain latest hour (hover to see other rain measurements)
** Current wind speed in m/s (hover to see current wind gust speed)